Regional Weather Roundup
Issued by NWS

Home | Current Version | Previous Version | Graphics & Text | Print | Product List | Glossary On
Versions: 1 2 3 4 5 6 7 8 9 10 11 12 13 14 15 16 17 18 19 20 21 22 23 24 25 26 27 28 29 30 31 32 33 34 35 36 37 38 39 40 41 42 43 44 45 46 47 48 49 50
000
ASUS43 KOAX 170502
RWRNE

WEATHER ROUNDUP FOR NEBRASKA
NATIONAL WEATHER SERVICE OMAHA NE
1200 AM CDT THU APR 17 2014

NOTES: SATELLITE DATA IS BEING USED TO AUGMENT CLOUD COVER ABOVE
       12000 FEET.
       "FAIR" INDICATES FEW OR NO CLOUDS BELOW 12,000 FEET WITH NO
       SIGNIFICANT WEATHER AND/OR OBSTRUCTIONS TO VISIBILITY.

  * THESE STATIONS DO NOT REPORT WEATHER SUCH AS RAIN...SNOW OR FOG.

NEZ001>004-019>022-054>056-170600-
NEBRASKA PANHANDLE

CITY           SKY/WX    TMP DP  RH WIND       PRES   REMARKS
SCOTTSBLUFF    CLOUDY    35  30  82 E12       30.14R WCI  27
ALLIANCE       CLOUDY    33  28  81 E12       30.13R WCI  24
CHADRON        CLOUDY    33  29  85 E7        30.15R WCI  27
KIMBALL        CLOUDY    34  29  83 SE8       30.10R WCI  27
SIDNEY         MOCLDY    30  27  88 E7        30.14R WCI  23
$$

NEZ057>060-069>072-079>082-170600-
SOUTHWEST NEBRASKA

CITY           SKY/WX    TMP DP  RH WIND       PRES   REMARKS
NORTH PLATTE   CLOUDY    32  26  78 NE10      30.18R WCI  24
IMPERIAL       MOCLDY    33  29  85 E3        30.17R
LEXINGTON      CLOUDY    33  28  80 N12       30.18R WCI  24
MCCOOK         MOCLDY    34  29  82 N12       30.17R WCI  25
OGALLALA       CLOUDY    34  28  79 E9        30.17R WCI  27
$$

NEZ005>010-023>029-035>040-094-170600-
NORTH CENTRAL NEBRASKA

CITY           SKY/WX    TMP DP  RH WIND       PRES   REMARKS
VALENTINE      CLOUDY    31  22  69 NE12      30.21R WCI  22
AINSWORTH      CLOUDY    31  25  79 N13       30.19S WCI  21
BROKEN BOW     CLOUDY    31  24  75 N16G26    30.15S WCI  20
O`NEILL        CLOUDY    31  23  72 N17       30.19R WCI  20
ORD            CLOUDY    31  24  75 N15       30.16R WCI  20
THEDFORD       CLOUDY    32  26  79 N8        30.18R WCI  25
$$

NEZ041-046>049-061>064-073>077-083>087-170600-
SOUTH CENTRAL NEBRASKA

CITY           SKY/WX    TMP DP  RH WIND       PRES   REMARKS
GRAND ISLAND   CLOUDY    34  25  69 N20       30.17R WCI  23
AURORA         CLOUDY    35  28  75 N18       30.15R WCI  24
HASTINGS       CLOUDY    35  26  69 N17       30.14R WCI  25
HEBRON         MOCLDY    36  28  73 N8        30.15R WCI  30
HOLDREGE       CLOUDY    33  27  77 N16       30.17R WCI  23
KEARNEY *      CLOUDY    34  25  69 N17       30.17R WCI  23
YORK           CLOUDY    34  27  75 N14G23    30.15R WCI  24
$$

NEZ011>018-030>034-042>045-170600-
NORTHEAST NEBRASKA

CITY           SKY/WX    TMP DP  RH WIND       PRES   REMARKS
NORFOLK        CLOUDY    32  25  75 N16G25    30.15R WCI  21
ALBION         CLOUDY    32  24  73 N14G21    30.17R WCI  22
BLAIR          CLOUDY    34  27  76 NW17      30.09R WCI  23
COLUMBUS *     CLOUDY    34  21  60 N15G22    30.15R WCI  24
FREMONT        CLOUDY    34  27  75 N15G25    30.14R WCI  25
TEKAMAH        CLOUDY    35  27  72 NW22      30.11R WCI  23
$$

NEZ050>053-065>068-078-088>093-170600-
SOUTHEAST NEBRASKA

CITY           SKY/WX    TMP DP  RH WIND       PRES   REMARKS
LINCOLN        CLOUDY    38  26  62 N22       30.15R WCI  27
OMAHA EPPLEY   CLOUDY    36  28  73 NW22G28   30.10R WCI  25
BEATRICE       MOCLDY    37  28  68 N13       30.12S WCI  29
FALLS CITY     PTCLDY    39  30  70 NW16      30.09R WCI  30
NEBRASKA CITY  CLOUDY    38  30  74 NW22      30.10R WCI  27
PLATTSMOUTH    CLOUDY    37  28  70 NW21G28   30.10R WCI  26
$$

NEZ044-045-051>053-067-170600-
OMAHA AREA

CITY           SKY/WX    TMP DP  RH WIND       PRES   REMARKS
OMAHA EPPLEY   CLOUDY    36  28  73 NW22G28   30.10R WCI  25
BLAIR          CLOUDY    34  27  76 NW17      30.09R WCI  23
FREMONT        CLOUDY    34  27  75 N15G25    30.14R WCI  25
MILLARD        CLOUDY    36  27  71 NW17G23   30.11R WCI  26
OFFUTT AFB     CLOUDY    37  29  75 NW17      30.10R WCI  27
PLATTSMOUTH    CLOUDY    37  28  70 NW21G28   30.10R WCI  26
WAHOO          CLOUDY    34  26  71 N21G28    30.12R WCI  23
$$



USA.gov is the U.S. government's official web portal to all federal, state and local government web resources and services.